TimeAKDT,TemperatureF,Dew PointF,Humidity,Sea Level PressureIn,VisibilityMPH,Wind Direction,Wind SpeedMPH,Gust SpeedMPH,PrecipitationIn,Events,Conditions,WindDirDegrees,DateUTC
12:28 AM,57.0,55.0,93,29.61,10.0,East,16.1,-,0.00,Rain,Light Rain,90,2013-06-26 08:28:00
12:53 AM,57.0,55.0,93,29.62,8.0,East,15.0,-,0.01,Rain,Light Rain,100,2013-06-26 08:53:00
1:53 AM,57.0,55.0,93,29.65,10.0,ESE,13.8,26.5,0.08,Rain,Light Rain,110,2013-06-26 09:53:00
2:53 AM,55.9,54.0,93,29.68,10.0,ESE,19.6,-,0.00,Rain,Light Rain,110,2013-06-26 10:53:00
3:53 AM,57.0,54.0,89,29.71,7.0,ESE,23.0,29.9,0.00,Rain,Light Rain,120,2013-06-26 11:53:00
4:53 AM,55.9,54.0,93,29.73,8.0,ESE,16.1,-,0.00,Rain,Light Rain,110,2013-06-26 12:53:00
5:53 AM,57.0,54.0,89,29.76,10.0,ESE,16.1,-,0.01,Rain,Light Rain,110,2013-06-26 13:53:00
6:53 AM,55.9,54.0,93,29.78,10.0,East,11.5,-,0.00,,Overcast,90,2013-06-26 14:53:00
7:53 AM,57.0,55.0,93,29.80,10.0,East,9.2,-,0.00,Rain,Light Rain,80,2013-06-26 15:53:00
8:29 AM,57.9,55.0,90,29.79,10.0,East,9.2,-,0.00,,Overcast,90,2013-06-26 16:29:00
8:53 AM,57.9,55.0,90,29.80,10.0,East,9.2,-,0.00,Rain,Light Rain,80,2013-06-26 16:53:00
9:53 AM,60.1,55.0,83,29.81,10.0,ENE,6.9,-,0.00,,Overcast,70,2013-06-26 17:53:00
10:53 AM,62.1,55.9,80,29.81,10.0,WSW,3.5,-,N/A,,Mostly Cloudy,240,2013-06-26 18:53:00
11:53 AM,63.0,55.9,78,29.81,10.0,WSW,10.4,-,N/A,,Overcast,240,2013-06-26 19:53:00
12:53 PM,64.0,54.0,70,29.83,10.0,WSW,11.5,-,N/A,,Overcast,240,2013-06-26 20:53:00
1:53 PM,63.0,54.0,72,29.83,10.0,WSW,8.1,-,N/A,,Overcast,240,2013-06-26 21:53:00
2:53 PM,63.0,54.0,72,29.85,10.0,WSW,5.8,-,0.00,Rain,Light Rain,240,2013-06-26 22:53:00
3:53 PM,61.0,57.0,87,29.85,10.0,East,4.6,-,0.00,Rain,Light Rain,90,2013-06-26 23:53:00
4:53 PM,57.9,55.0,90,29.87,9.0,ENE,8.1,-,0.03,Rain,Light Rain,60,2013-06-27 00:53:00
5:11 PM,57.9,55.0,90,29.87,10.0,Variable,6.9,-,0.01,Rain,Light Rain,0,2013-06-27 01:11:00
5:53 PM,57.9,55.0,90,29.88,10.0,ENE,4.6,-,0.02,Rain,Light Rain,70,2013-06-27 01:53:00
6:53 PM,57.9,55.9,93,29.90,10.0,East,4.6,-,0.04,Rain,Light Rain,90,2013-06-27 02:53:00
7:53 PM,57.0,55.9,96,29.91,10.0,East,3.5,-,0.02,Rain,Light Rain,90,2013-06-27 03:53:00
8:53 PM,55.0,55.0,100,29.92,10.0,East,5.8,-,0.01,Rain,Light Rain,90,2013-06-27 04:53:00
9:53 PM,55.0,54.0,96,29.94,10.0,East,5.8,-,0.02,Rain,Light Rain,100,2013-06-27 05:53:00
10:53 PM,54.0,54.0,100,29.96,10.0,East,5.8,-,0.02,Rain,Light Rain,100,2013-06-27 06:53:00
11:53 PM,54.0,53.1,97,29.97,10.0,East,4.6,-,0.01,Rain,Light Rain,100,2013-06-27 07:53:00